Hourly Data Report for October 17, 2003

TORONTO CITY
ONTARIO

43°40'00.000" N
79°24'00.000" W
112.50 m
6158355
71508
XTO

Download Data

Hourly Data (October 2003)
Hourly Data Report for October 17, 2003
TIME
LST
Temp Definition
°C
Dew Point Definition
°C
Rel Hum Definition
%
Precip. Amount Definition
mm

Wind Dir Definition
10's deg

Wind Spd Definition
km/h
Visibility Definition
km
Stn Press Definition
kPa
Hmdx Definition


Wind Chill Definition


Weather Definition


00:00 7.7 0.8 62   LegendMM LegendMM LegendMM 100.42     LegendNANA
01:00 6.9 0.9 66   LegendMM LegendMM LegendMM 100.45     LegendNANA
02:00 6.2 1.2 70   LegendMM LegendMM LegendMM 100.49     LegendNANA
03:00 6.0 1.5 73   LegendMM LegendMM LegendMM 100.52     LegendNANA
04:00 5.7 1.6 75   LegendMM LegendMM LegendMM 100.54     LegendNANA
05:00 4.3 1.2 80   LegendMM LegendMM LegendMM 100.56     LegendNANA
06:00 5.1 1.6 78   LegendMM LegendMM LegendMM 100.64     LegendNANA
07:00 4.8 1.7 80   LegendMM LegendMM LegendMM 100.67     LegendNANA
08:00 6.3 1.6 72   LegendMM LegendMM LegendMM 100.73     LegendNANA
09:00 8.3 1.0 60   LegendMM LegendMM LegendMM 100.75     LegendNANA
10:00 9.1 0.8 56   LegendMM LegendMM LegendMM 100.73     LegendNANA
11:00 9.1 0.6 55   LegendMM LegendMM LegendMM 100.73     LegendNANA
12:00 9.9 -1.4 45   LegendMM LegendMM LegendMM 100.69     LegendNANA
13:00 10.8 -1.8 41   LegendMM LegendMM LegendMM 100.60     LegendNANA
14:00 10.2 -1.0 46   LegendMM LegendMM LegendMM 100.58     LegendNANA
15:00
16:00 9.5 0.5 53   LegendMM LegendMM LegendMM 100.61     LegendNANA
17:00
18:00 9.1 1.7 60   LegendMM LegendMM LegendMM 100.63     LegendNANA
19:00 8.0 1.4 63   LegendMM LegendMM LegendMM 100.65     LegendNANA
20:00 6.8 1.4 68   LegendMM LegendMM LegendMM 100.66     LegendNANA
21:00 6.7 1.5 69   LegendMM LegendMM LegendMM 100.68     LegendNANA
22:00
23:00 5.2 0.1 70   LegendMM LegendMM LegendMM 100.64     LegendNANA

Notes on Data Quality.

Legend

  • E = Estimated
  • M = Missing
  • NA = Not Available*
  • [empty] = Indicates an unobserved value
Date modified: